Location: Sevilla
(37.3933°N, 5.9839°W)
Time: 05:07:17
(UTC+02:00)

Vanguard 3 - Pass Details

Date: 03 July 2024
Orbit: 508 x 3231 km, 33.4° (Epoch: 15 July)

Event Time Altitude Azimuth Distance (km) Brightness Sun altitude
Rises 10:18:46 0° 266° (W) 6,899 11.4 35.1°
Reaches altitude 10° 10:23:50 10° 265° (W) 5,611 11.0 36.1°
Maximum altitude 10:39:30 73° 184° (S) 1,975 9.7 39.3°
Drops below altitude 10° 10:48:15 10° 102° (ESE) 3,312 11.4 41.0°
Sets 10:50:30 0° 100° (E) 4,010 11.5 41.4°
